Flag for Germany Weather past 2 weeks in Kaiserslautern, Rhineland-Palatinate, Germany

Now
49 °F

Partly sunny.


Feels Like: 43 °F
Forecast: 32 / 53 °F
Wind: 17 mph from West

Location: Ramstein

Current Time: Mar 27, 2015 at 1:24:50 PM

Latest Report: Mar 27, 2015 at 12:58 PM


Visibility: N/A

Pressure: 30.12 "Hg

Humidity: 50%

Dew point: 31 °F

Location of KaiserslauternLocation

Historic Weather in Kaiserslautern — Graph

°F

Kaiserslautern temperature yesterday

Maximum temperature yesterday: 51 °F (at 2:58 PM)
Minimum temperature yesterday: 41 °F (at 6:04 AM)
Average temperature yesterday: 44 °F

Past Weeks' High & Low Weather Summary

 TemperatureHumidityPressure
High65 °F (Mar 18, 3:58 PM)100% (Mar 13, 12:58 AM)30.44 "Hg (Mar 13, 12:58 AM)
Low23 °F (Mar 14, 3:58 AM)30% (Mar 18, 5:58 PM)29.63 "Hg (Mar 25, 7:02 AM)
Average40 °F79%30.11 "Hg
* Reported Mar 12 11:58 AM — Mar 27 11:58 AM, Kaiserslautern, Weather by CustomWeather, © 2015

Note: Actual official high and low records may vary slightly from our data, if they occured in-between our weather recording intervals... More about our weather records

Advertising

Kaiserslautern weather history for previous 24 hours

 ConditionsComfort  
Time TempWeatherWind HumidityBarometerVisibility
11:58 AM
Fri, Mar 27
51 °FScattered clouds.17 mph50%30.10 "HgN/A
10:58 AM47 °FScattered clouds.15 mph60%30.10 "HgN/A
9:58 AM46 °FScattered clouds.10 mph65%30.09 "HgN/A
8:58 AM43 °FMostly cloudy.13 mph80%30.08 "HgN/A
7:58 AM42 °FSunny.13 mph89%30.04 "HgN/A
6:58 AM39 °FSunny.9 mph99%30.02 "HgN/A
5:58 AM41 °FOvercast.8 mph93%29.99 "HgN/A
4:58 AM38 °FOvercast.7 mph99%29.97 "HgN/A
3:58 AM41 °FPassing clouds.7 mph97%29.93 "HgN/A
3:01 AM43 °FPassing clouds.9 mph100%29.90 "HgN/A
1:59 AM41 °FPassing clouds.8 mph100%29.88 "HgN/A
1:58 AM42 °FPassing clouds.8 mph100%29.90 "HgN/A
12:58 AM42 °FOvercast.7 mph97%29.90 "HgN/A
11:59 PM
Thu, Mar 26
41 °FLight rain. Overcast.8 mph100%29.86 "HgN/A
10:58 PM41 °FOvercast.9 mph93%29.88 "HgN/A
9:58 PM41 °FMostly cloudy.8 mph93%29.87 "HgN/A
8:59 PM41 °FLight rain. Overcast.12 mph87%29.83 "HgN/A
8:04 PM43 °FLight rain. Mostly cloudy.13 mph76%29.82 "HgN/A
6:58 PM44 °FPassing clouds.10 mph65%29.83 "HgN/A
5:58 PM45 °FLight rain. Passing clouds.14 mph61%29.78 "HgN/A
5:00 PM48 °FLight rain. Passing clouds.16 mph43%29.77 "HgN/A
3:58 PM50 °FPassing clouds.14 mph37%29.78 "HgN/A
2:58 PM51 °FPassing clouds.12 mph36%29.79 "HgN/A
1:58 PM50 °FPassing clouds.14 mph42%29.80 "HgN/A
Weather by CustomWeather, © 2015

See weather overviewHow to use our weather pages